When you browse on this site, cookies collect data to enhance your experience and personalize the content and advertising you see.
Visit our Privacy Policy to learn more. By continuing to use the site, you agree to this use of cookies and data.
  • In Hungary
  • List of Countries
  • For 7 days
  • Water Temperature
  • Weather Map
  • News
  • Weather Widgets
  • user-avatar
    Login

    Hourly Weather Nevezhkino

    Today, 23 October, Wednesday

    Time Temperature Precipitation Wind Pressure Humidity
    00:00 +9°C° 0 mm 1 mps 751 mmHg 89%
    01:00 +8°C° 0 mm 2 mps 751 mmHg 90%
    02:00 +7°C° 0 mm 2 mps 751 mmHg 91%
    03:00 +7°C° 0 mm 2 mps 751 mmHg 92%
    04:00 +7°C° 0 mm 3 mps 751 mmHg 93%
    05:00 +7°C° 0 mm 3 mps 750 mmHg 93%
    06:00 +7°C° 0 mm 3 mps 750 mmHg 94%
    07:00 +7°C° 0 mm 4 mps 750 mmHg 91%
    08:00 +9°C° 0 mm 5 mps 749 mmHg 89%
    09:00 +10°C° 0 mm 6 mps 749 mmHg 87%
    10:00 +10°C° 0 mm 6 mps 749 mmHg 86%
    11:00 +12°C° 0 mm 5 mps 749 mmHg 85%
    12:00 +13°C° 0 mm 5 mps 748 mmHg 85%
    13:00 +13°C° 0.9 mm 5 mps 748 mmHg 87%
    14:00 +12°C° 0.9 mm 5 mps 748 mmHg 89%
    15:00 +12°C° 0.9 mm 5 mps 748 mmHg 91%
    16:00 +12°C° 0 mm 5 mps 748 mmHg 92%
    17:00 +12°C° 0 mm 4 mps 748 mmHg 93%
    18:00 +11°C° 0 mm 4 mps 748 mmHg 93%
    19:00 +11°C° 0 mm 4 mps 748 mmHg 94%
    20:00 +11°C° 0 mm 3 mps 748 mmHg 94%
    21:00 +11°C° 0 mm 3 mps 748 mmHg 95%
    22:00 +11°C° 0 mm 3 mps 748 mmHg 95%
    23:00 +10°C° 0 mm 2 mps 748 mmHg 95%

    Tomorrow, 24 October, Thursday

    Time Temperature Precipitation Wind Pressure Humidity
    00:00 +10°C° 0 mm 2 mps 748 mmHg 95%
    01:00 +11°C° 0 mm 1 mps 749 mmHg 91%
    02:00 +11°C° 0 mm 1 mps 749 mmHg 87%
    03:00 +11°C° 0 mm 1 mps 749 mmHg 84%
    04:00 +10°C° 0 mm 1 mps 749 mmHg 84%
    05:00 +10°C° 0 mm 1 mps 749 mmHg 85%
    06:00 +9°C° 0 mm 1 mps 749 mmHg 86%
    07:00 +10°C° 0 mm 1 mps 749 mmHg 83%
    08:00 +10°C° 0 mm 1 mps 750 mmHg 80%
    09:00 +11°C° 0 mm 1 mps 750 mmHg 77%
    10:00 +12°C° 0 mm 1 mps 750 mmHg 72%
    11:00 +13°C° 0 mm 1 mps 750 mmHg 68%
    12:00 +14°C° 0 mm 1 mps 750 mmHg 63%
    13:00 +14°C° 0 mm 1 mps 750 mmHg 63%
    14:00 +14°C° 0 mm 1 mps 750 mmHg 62%
    15:00 +14°C° 0 mm 1 mps 750 mmHg 62%
    16:00 +13°C° 0 mm 1 mps 750 mmHg 66%
    17:00 +12°C° 0 mm 1 mps 750 mmHg 71%
    18:00 +12°C° 0 mm 1 mps 750 mmHg 75%
    19:00 +12°C° 0 mm 1 mps 751 mmHg 75%
    20:00 +12°C° 0 mm 1 mps 751 mmHg 76%
    21:00 +12°C° 0 mm 1 mps 751 mmHg 76%
    22:00 +12°C° 0 mm 1 mps 751 mmHg 77%
    23:00 +12°C° 0 mm 1 mps 751 mmHg 77%

    Day after tomorrow, 25 October, Friday

    Time Temperature Precipitation Wind Pressure Humidity
    00:00 +12°C° 0 mm 1 mps 751 mmHg 78%
    01:00 +12°C° 0 mm 1 mps 751 mmHg 78%
    02:00 +11°C° 0 mm 1 mps 751 mmHg 79%
    03:00 +11°C° 0 mm 1 mps 751 mmHg 79%
    04:00 +11°C° 0.1 mm 1 mps 751 mmHg 81%
    05:00 +11°C° 0.1 mm 1 mps 751 mmHg 83%
    06:00 +11°C° 0.1 mm 1 mps 750 mmHg 84%
    07:00 +11°C° 0.1 mm 1 mps 751 mmHg 84%
    08:00 +11°C° 0.1 mm 1 mps 751 mmHg 84%
    09:00 +11°C° 0.1 mm 1 mps 751 mmHg 84%
    10:00 +12°C° 0 mm 1 mps 751 mmHg 80%
    11:00 +13°C° 0 mm 1 mps 751 mmHg 76%
    12:00 +14°C° 0 mm 1 mps 751 mmHg 72%
    13:00 +14°C° 0 mm 1 mps 751 mmHg 72%
    14:00 +14°C° 0 mm 1 mps 751 mmHg 73%
    15:00 +14°C° 0 mm 1 mps 751 mmHg 73%
    16:00 +14°C° 0.2 mm 1 mps 751 mmHg 78%
    17:00 +13°C° 0.2 mm 1 mps 751 mmHg 83%
    18:00 +13°C° 0.2 mm 1 mps 751 mmHg 88%
    19:00 +12°C° 0 mm 1 mps 751 mmHg 90%
    20:00 +12°C° 0 mm 1 mps 751 mmHg 91%
    21:00 +12°C° 0 mm 1 mps 751 mmHg 93%
    22:00 +12°C° 0 mm 1 mps 751 mmHg 93%
    23:00 +11°C° 0 mm 1 mps 751 mmHg 93%

    26 October, Saturday

    Time Temperature Precipitation Wind Pressure Humidity
    00:00 +10°C° 0 mm 0 mps 751 mmHg 93%
    01:00 +11°C° 0.1 mm 1 mps 751 mmHg 93%
    02:00 +11°C° 0.1 mm 1 mps 751 mmHg 93%
    03:00 +11°C° 0.1 mm 1 mps 750 mmHg 92%
    04:00 +11°C° 0.1 mm 1 mps 750 mmHg 92%
    05:00 +11°C° 0.1 mm 1 mps 750 mmHg 91%
    06:00 +10°C° 0.1 mm 2 mps 750 mmHg 90%
    07:00 +10°C° 0 mm 2 mps 750 mmHg 89%
    08:00 +12°C° 0 mm 2 mps 750 mmHg 87%
    09:00 +11°C° 0 mm 3 mps 750 mmHg 86%
    10:00 +12°C° 0 mm 3 mps 750 mmHg 82%
    11:00 +13°C° 0 mm 4 mps 750 mmHg 78%
    12:00 +14°C° 0 mm 5 mps 750 mmHg 75%
    13:00 +14°C° 0 mm 5 mps 750 mmHg 72%
    14:00 +14°C° 0 mm 5 mps 749 mmHg 70%
    15:00 +14°C° 0 mm 5 mps 749 mmHg 67%
    16:00 +13°C° 0 mm 4 mps 749 mmHg 72%
    17:00 +12°C° 0 mm 4 mps 749 mmHg 77%
    18:00 +11°C° 0 mm 3 mps 749 mmHg 81%
    19:00 +11°C° 0 mm 3 mps 749 mmHg 83%
    20:00 +11°C° 0 mm 3 mps 749 mmHg 84%
    21:00 +10°C° 0 mm 3 mps 749 mmHg 85%
    22:00 +10°C° 0 mm 4 mps 748 mmHg 86%
    23:00 +10°C° 0 mm 4 mps 748 mmHg 86%

    27 October, Sunday

    Time Temperature Precipitation Wind Pressure Humidity
    00:00 +10°C° 0 mm 4 mps 748 mmHg 87%
    01:00 +10°C° 0 mm 4 mps 748 mmHg 88%
    02:00 +10°C° 0 mm 4 mps 748 mmHg 89%
    03:00 +8°C° 0 mm 4 mps 747 mmHg 90%
    04:00 +8°C° 0 mm 4 mps 747 mmHg 90%
    05:00 +8°C° 0 mm 4 mps 747 mmHg 91%
    06:00 +8°C° 0 mm 4 mps 747 mmHg 91%
    07:00 +8°C° 0 mm 5 mps 746 mmHg 88%
    08:00 +9°C° 0 mm 5 mps 746 mmHg 84%
    09:00 +9°C° 0 mm 6 mps 746 mmHg 81%
    10:00 +11°C° 0 mm 6 mps 746 mmHg 77%
    11:00 +12°C° 0 mm 7 mps 745 mmHg 72%
    12:00 +14°C° 0 mm 7 mps 745 mmHg 67%
    13:00 +14°C° 0 mm 7 mps 745 mmHg 66%
    14:00 +14°C° 0 mm 7 mps 744 mmHg 65%
    15:00 +15°C° 0 mm 7 mps 744 mmHg 64%
    16:00 +14°C° 0 mm 7 mps 743 mmHg 66%
    17:00 +13°C° 0 mm 6 mps 743 mmHg 69%
    18:00 +13°C° 0 mm 6 mps 743 mmHg 71%
    19:00 +11°C° 0 mm 6 mps 743 mmHg 72%
    20:00 +11°C° 0 mm 6 mps 742 mmHg 72%
    21:00 +11°C° 0 mm 6 mps 742 mmHg 73%
    22:00 +11°C° 0 mm 6 mps 742 mmHg 74%
    23:00 +10°C° 0 mm 6 mps 742 mmHg 75%

    28 October, Monday

    Time Temperature Precipitation Wind Pressure Humidity
    00:00 +10°C° 0 mm 6 mps 741 mmHg 76%
    01:00 +10°C° 0 mm 6 mps 741 mmHg 77%
    02:00 +9°C° 0 mm 6 mps 741 mmHg 78%
    03:00 +9°C° 0 mm 6 mps 740 mmHg 79%
    04:00 +9°C° 0 mm 6 mps 740 mmHg 81%
    05:00 +8°C° 0 mm 6 mps 740 mmHg 82%
    06:00 +8°C° 0 mm 5 mps 740 mmHg 83%
    07:00 +9°C° 0 mm 5 mps 740 mmHg 83%
    08:00 +9°C° 0 mm 5 mps 741 mmHg 83%
    09:00 +9°C° 0 mm 5 mps 741 mmHg 82%
    10:00 +10°C° 0 mm 5 mps 741 mmHg 81%
    11:00 +10°C° 0 mm 5 mps 742 mmHg 80%
    12:00 +11°C° 0 mm 4 mps 742 mmHg 79%
    13:00 +11°C° 0 mm 3 mps 742 mmHg 75%
    14:00 +11°C° 0 mm 3 mps 742 mmHg 72%
    15:00 +12°C° 0 mm 2 mps 742 mmHg 68%
    16:00 +10°C° 0 mm 2 mps 742 mmHg 70%
    17:00 +11°C° 0 mm 1 mps 742 mmHg 72%
    18:00 +10°C° 0 mm 1 mps 742 mmHg 74%
    19:00 +10°C° 0 mm 1 mps 742 mmHg 75%
    20:00 +9°C° 0 mm 1 mps 742 mmHg 77%
    21:00 +8°C° 0 mm 0 mps 742 mmHg 78%
    22:00 +8°C° 0 mm 0 mps 742 mmHg 78%
    23:00 +7°C° 0 mm 0 mps 742 mmHg 79%

    29 October, Tuesday

    Time Temperature Precipitation Wind Pressure Humidity
    00:00 +7°C° 0 mm 0 mps 742 mmHg 79%
    01:00 +7°C° 0 mm 0 mps 742 mmHg 79%
    02:00 +7°C° 0 mm 0 mps 741 mmHg 78%
    03:00 +7°C° 0 mm 0 mps 741 mmHg 78%
    04:00 +7°C° 0 mm 0 mps 741 mmHg 79%
    05:00 +7°C° 0 mm 0 mps 741 mmHg 80%
    06:00 +7°C° 0 mm 0 mps 740 mmHg 82%
    07:00 +7°C° 0 mm 0 mps 740 mmHg 80%
    08:00 +7°C° 0 mm 0 mps 740 mmHg 79%
    09:00 +8°C° 0 mm 0 mps 740 mmHg 78%
    10:00 +9°C° 0 mm 1 mps 740 mmHg 73%
    11:00 +9°C° 0 mm 2 mps 740 mmHg 68%
    12:00 +10°C° 0 mm 3 mps 740 mmHg 63%
    13:00 +10°C° 0 mm 3 mps 740 mmHg 61%
    14:00 +9°C° 0 mm 3 mps 740 mmHg 58%
    15:00 +9°C° 0 mm 3 mps 740 mmHg 56%
    16:00 +8°C° 0 mm 3 mps 740 mmHg 60%
    17:00 +7°C° 0 mm 3 mps 740 mmHg 63%
    18:00 +6°C° 0 mm 2 mps 740 mmHg 67%
    19:00 +6°C° 0 mm 2 mps 740 mmHg 69%
    20:00 +6°C° 0 mm 2 mps 741 mmHg 71%
    21:00 +6°C° 0 mm 2 mps 741 mmHg 73%
    22:00 +6°C° 0 mm 2 mps 741 mmHg 72%
    23:00 +6°C° 0 mm 2 mps 741 mmHg 70%
    Show more